Temp
6 7 7 7 7 7 6 7 6 6 6 6 6 6 6 7 7 7 6 6 6 6 6 6 6 6 6 6 6 6 6 6 5 5 5 5 5 5 5 5 5 5 5
6 6 6 6 6 6 6 6 6 6 6 6 6 6 6 7 7 7 6 6 6 6 6 6 6 6 6 6 6 6 6 6 6 6 6 5 5 5 5 5 5 5 5
6 6 6 6 6 6 6 6 6 6 6 6 6 6 6 6 6 6 6 6 6 6 6 6 5 6 6 6 6 5 5 6 6 6 6 6 5 5 5 5 5 5 5
5 5 5 5 5 6 6 6 6 5 5 5 6 5 6 6 6 6 6 6 6 6 6 6 5 6 6 6 6 5 5 5 5 6 6 5 5 5 5 5 5 5 5
5 5 5 5 5 5 5 5 5 5 5 5 5 5 6 6 6 6 6 6 5 5 5 6 5 6 6 5 6 6 6 5 5 5 5 5 5 5 5 5 5 5 5
5 5 5 5 5 5 5 5 5 5 5 5 5 5 5 6 6 5 5 5 5 5 5 5 5 5 5 5 5 5 5 5 5 5 5 5 5 5 5 4 4 4 4
4 4 4 5 5 5 4 4 4 4 5 5 5 4 5 5 5 5 5 5 5 5 4 5 5 5 5 5 5 5 5 5 5 5 4 4 4 4 4 4 4 4 4
4 3 4 4 4 5 5 5 4 4 4 4 4 4 5 5 5 4 4 4 4 4 4 4 4 4 5 4 4 5 5 5 4 4 4 4 4 4 4 3 3 3 3
3 3 4 4 4 4 4 4 4 4 4 4 4 4 4 4 4 4 4 4 4 4 4 4 4 4 4 4 4 4 4 4 4 4 4 3 3 3 3 3 3 3 3
3 3 3 4 3 4 4 4 3 3 3 4 3 3 4 4 4 4 4 3 3 3 4 3 3 3 3 4 4 4 4 4 4 4 3 3 3 3 3 3 3 3 3
3 3 3 3 3 3 3 4 3 3 3 3 3 3 3 3 3 3 3 3 3 3 3 3 3 3 3 2 3 3 3 3 4 3 3 3 2 2 2 3 3 3 2
2 3 3 3 3 3 3 3 3 3 3 3 3 2 3 3 3 3 3 2 2 2 2 2 2 2 2 2 2 2 2 2 2 2 2 2 2 2 2 2 2 2 2
3 3 3 3 3 3 3 3 3 3 3 3 2 2 2 2 2 2 2 2 2 2 2 2 1 1 1 1 1 1 2 2 2 2 2 2 2 2 2 2 2 2 2
2 2 2 2 2 3 3 3 3 3 3 3 2 2 2 2 2 2 2 2 2 2 2 1 1 1 1 1 1 1 1 1 2 2 2 2 2 1 1 1 1 2 1
1 2 2 2 2 2 2 3 3 2 2 2 2 2 2 2 1 1 1 1 1 1 1 1 1 1 0 0 0 0 1 1 1 1 1 1 1 1 1 1 1 1 1
2 2 2 2 2 2 2 2 2 2 2 2 2 2 1 1 1 1 1 1 1 1 1 1 1 1 1 -0 -0 -0 0 0 1 1 1 1 0 0 0 0 0 1 0
2 2 2 2 2 2 2 2 2 2 2 2 2 1 1 1 1 0 0 0 0 -0 -0 -0 0 0 0 -0 -0 -0 -0 -0 -0 -0 0 0 -0 -0 -0 -0 -0 -0 -0
2 3 3 2 3 2 2 2 2 2 2 1 1 1 1 0 0 -0 -0 -0 -0 -1 -1 -1 -1 -0 -0 -1 -1 -1 -1 -1 -1 -0 -0 -0 -1 -1 -1 -1 -1 -1 -1
3 3 3 3 3 3 3 3 2 2 1 1 1 0 0 -0 -0 -1 -1 -1 -1 -1 -1 -1 -1 -1 -1 -1 -1 -1 -2 -2 -1 -1 -1 -1 -1 -1 -1 -1 -1 -1 -1
3 3 3 3 3 3 3 3 2 2 1 1 1 -0 -0 -0 -1 -1 -1 -1 -1 -1 -2 -2 -1 -1 -1 -1 -1 -1 -1 -1 -1 -1 -1 -1 -1 -1 -2 -1 -2 -1 -2
3 3 3 4 4 4 4 3 3 2 2 1 0 0 -0 -1 -1 -1 -1 -1 -2 -2 -2 -2 -2 -2 -2 -2 -2 -2 -1 -1 -1 -1 -0 -1 -1 -1 -2 -2 -2 -2 -2
3 4 4 4 4 4 4 3 2 2 2 1 0 -0 -0 -1 -2 -2 -2 -2 -2 -2 -2 -3 -2 -2 -2 -2 -2 -2 -2 -2 -0 -1 -0 0 -1 -1 -2 -2 -2 -2 -2
2 2 3 4 4 4 3 3 3 3 2 1 1 0 -1 -1 -1 -2 -2 -2 -2 -3 -3 -3 -3 -3 -3 -3 -3 -3 -3 -2 -2 -2 -1 1 -1 -1 -2 -2 -1 -2 -3
2 3 3 4 4 4 3 3 3 3 3 2 1 -0 -1 -2 -2 -3 -3 -3 -3 -4 -4 -4 -4 -4 -4 -4 -4 -3 -3 -3 -3 -3 -3 -1 -2 -1 -1 -1 -2 -2 -2
3 3 4 2 3 3 3 3 3 3 3 2 2 1 -1 -2 -2 -2 -3 -3 -4 -3 -4 -4 -4 -4 -4 -4 -4 -4 -4 -4 -3 -3 -4 -3 -2 -1 0 -0 -1 -2 -2
2 2 2 2 2 2 2 2 2 2 2 2 2 0 -1 -3 -3 -2 -3 -3 -3 -4 -4 -4 -4 -4 -4 -5 -5 -5 -4 -4 -4 -3 -5 -3 -3 -4 1 1 -1 -2 -3
Height
3138 3141 3145 3149 3153 3156 3159 3162 3165 3166 3169 3171 3172 3172 3172 3175 3176 3177 3177 3177 3178 3179 3179 3177 3176 3175 3174 3172 3171 3170 3168 3166 3165 3164 3162 3160 3159 3157 3156 3155 3154 3153 3153
3134 3139 3143 3147 3150 3153 3157 3160 3163 3165 3168 3169 3170 3170 3172 3174 3175 3176 3176 3176 3177 3177 3177 3176 3175 3174 3173 3172 3170 3169 3167 3165 3163 3162 3160 3158 3156 3155 3154 3153 3151 3150 3149
3131 3135 3140 3144 3148 3151 3155 3158 3162 3163 3166 3167 3168 3168 3170 3172 3174 3174 3173 3173 3174 3175 3175 3175 3174 3173 3172 3171 3169 3168 3167 3165 3162 3159 3158 3157 3154 3152 3150 3149 3147 3146 3145
3127 3132 3136 3141 3145 3148 3152 3156 3159 3161 3164 3165 3165 3167 3168 3170 3172 3171 3171 3172 3172 3172 3173 3172 3172 3170 3170 3169 3168 3166 3166 3164 3162 3159 3156 3154 3152 3150 3148 3146 3144 3142 3140
3122 3128 3132 3137 3141 3145 3149 3154 3157 3159 3163 3162 3164 3164 3165 3168 3170 3169 3170 3170 3170 3170 3170 3169 3168 3167 3166 3166 3166 3165 3163 3162 3160 3158 3155 3152 3150 3148 3146 3143 3141 3139 3136
3118 3123 3128 3132 3137 3142 3146 3150 3154 3157 3160 3160 3161 3162 3163 3165 3167 3167 3167 3168 3168 3168 3167 3166 3165 3164 3163 3163 3163 3162 3161 3159 3157 3155 3152 3149 3147 3145 3142 3139 3137 3134 3132
3114 3119 3123 3128 3133 3139 3143 3147 3150 3154 3157 3158 3159 3159 3160 3162 3163 3163 3165 3165 3165 3165 3164 3163 3162 3161 3160 3160 3158 3158 3157 3156 3153 3151 3148 3146 3143 3141 3138 3135 3132 3130 3127
3109 3115 3120 3124 3129 3135 3138 3142 3146 3150 3153 3154 3155 3157 3157 3160 3160 3161 3161 3162 3161 3162 3160 3159 3158 3158 3157 3157 3156 3154 3152 3151 3149 3147 3144 3142 3139 3136 3133 3130 3127 3123 3120
3104 3110 3115 3120 3125 3130 3135 3139 3142 3146 3149 3150 3151 3154 3153 3156 3156 3157 3158 3158 3158 3157 3157 3156 3154 3154 3153 3153 3152 3150 3149 3147 3145 3143 3140 3137 3134 3130 3127 3124 3120 3116 3113
3100 3105 3110 3115 3119 3125 3129 3134 3137 3141 3144 3146 3147 3149 3150 3152 3153 3155 3155 3154 3154 3153 3152 3152 3150 3150 3149 3148 3148 3146 3145 3144 3141 3137 3133 3130 3127 3124 3121 3117 3114 3110 3106
3095 3099 3104 3110 3115 3120 3124 3128 3131 3136 3139 3141 3143 3144 3146 3148 3149 3150 3150 3151 3150 3149 3148 3147 3145 3144 3143 3142 3141 3140 3139 3137 3135 3132 3128 3124 3122 3118 3115 3111 3107 3104 3100
3088 3094 3100 3104 3110 3114 3119 3122 3127 3130 3134 3136 3137 3139 3141 3143 3145 3145 3145 3146 3145 3145 3143 3142 3140 3140 3138 3136 3135 3134 3132 3130 3127 3124 3122 3119 3115 3111 3107 3104 3100 3096 3091
3083 3091 3095 3101 3105 3110 3112 3117 3121 3124 3128 3132 3132 3133 3135 3136 3138 3139 3140 3140 3140 3139 3138 3137 3135 3134 3132 3131 3129 3128 3126 3124 3121 3118 3115 3111 3107 3103 3099 3095 3091 3086 3082
3080 3085 3092 3096 3101 3104 3109 3112 3115 3117 3121 3125 3126 3128 3129 3130 3132 3133 3135 3135 3135 3134 3133 3131 3130 3128 3126 3124 3122 3122 3120 3118 3115 3112 3108 3104 3099 3095 3091 3087 3083 3078 3073
3075 3080 3084 3090 3094 3098 3102 3104 3107 3111 3114 3117 3120 3121 3122 3124 3126 3127 3128 3128 3129 3129 3128 3126 3124 3122 3120 3118 3115 3114 3113 3111 3107 3104 3100 3096 3091 3086 3082 3078 3073 3069 3063
3068 3074 3080 3083 3086 3091 3094 3097 3100 3104 3106 3110 3112 3114 3116 3117 3119 3121 3121 3121 3122 3121 3122 3121 3119 3115 3113 3110 3107 3107 3105 3104 3100 3096 3092 3088 3083 3078 3073 3068 3063 3058 3052
3060 3066 3071 3074 3079 3082 3085 3088 3092 3096 3099 3102 3104 3106 3108 3110 3112 3113 3114 3114 3115 3114 3114 3114 3113 3109 3106 3102 3101 3098 3096 3095 3092 3088 3084 3080 3074 3069 3064 3057 3052 3048 3041
3054 3058 3061 3064 3066 3073 3076 3079 3084 3088 3091 3093 3097 3098 3100 3102 3105 3105 3106 3106 3107 3107 3107 3107 3105 3103 3100 3095 3092 3091 3087 3086 3083 3080 3075 3071 3065 3060 3055 3047 3042 3038 3031
3046 3048 3049 3053 3058 3063 3066 3070 3075 3079 3082 3085 3087 3089 3092 3094 3096 3097 3098 3098 3098 3099 3098 3098 3097 3096 3093 3089 3085 3082 3079 3077 3075 3071 3065 3062 3056 3051 3045 3037 3032 3026 3018
3035 3038 3041 3044 3047 3051 3055 3060 3065 3069 3072 3075 3078 3080 3083 3085 3087 3088 3088 3089 3089 3090 3089 3089 3089 3087 3084 3080 3075 3072 3073 3068 3067 3064 3056 3052 3045 3041 3035 3027 3021 3014 3006
3026 3029 3031 3034 3038 3041 3047 3051 3055 3060 3062 3065 3068 3071 3073 3076 3078 3078 3079 3081 3080 3080 3081 3080 3080 3078 3074 3071 3066 3064 3058 3056 3057 3052 3042 3042 3036 3030 3024 3016 3009 3000 2990
3019 3022 3024 3027 3030 3033 3037 3041 3045 3046 3050 3053 3058 3060 3064 3066 3067 3069 3071 3071 3072 3071 3072 3071 3070 3067 3065 3059 3056 3054 3049 3044 3042 3045 3029 3027 3023 3016 3008 3001 2992 2982 2972
3007 3012 3015 3017 3019 3023 3027 3030 3031 3035 3039 3042 3045 3049 3052 3055 3057 3060 3061 3061 3062 3063 3063 3063 3062 3058 3055 3050 3046 3044 3040 3034 3030 3028 3015 3007 3007 3000 2993 2987 2979 2970 2961
2998 3002 3006 3008 3010 3013 3016 3019 3022 3024 3027 3030 3033 3037 3041 3044 3047 3049 3050 3051 3053 3054 3054 3054 3053 3051 3047 3044 3038 3034 3029 3025 3021 3020 3008 2995 2997 2987 2980 2974 2966 2958 2944
2987 2990 2993 2996 2998 3001 3003 3004 3007 3013 3016 3019 3022 3025 3028 3032 3036 3037 3039 3041 3044 3045 3045 3045 3044 3042 3039 3036 3030 3026 3020 3015 3008 3007 3001 2987 2985 2973 2967 2962 2951 2943 2932
2975 2979 2982 2985 2987 2989 2992 2995 2996 2998 3003 3006 3009 3012 3015 3020 3023 3024 3028 3031 3033 3035 3036 3036 3035 3033 3031 3027 3023 3016 3010 3004 2999 2993 2992 2976 2971 2960 2951 2949 2941 2933 2922
Wind_Speed
24 24 24 24 21 20 18 16 14 11 10 9 8 5 5 6 6 7 6 6 7 9 9 8 8 9 10 12 13 15 16 15 15 16 17 18 17 17 16 16 17 18 19
25 25 25 24 23 21 20 17 15 12 11 10 8 5 6 6 7 7 6 7 9 10 11 11 11 12 13 13 14 17 16 15 15 17 18 17 16 16 16 17 18 19 20
27 26 26 25 24 23 20 17 15 13 13 11 7 7 6 6 7 6 6 7 9 11 13 12 13 13 15 16 16 18 18 17 17 18 19 19 19 19 19 19 20 21 22
29 28 28 28 26 23 21 20 18 15 14 11 8 8 5 6 8 6 7 9 9 11 13 13 14 14 16 18 18 19 20 20 20 20 19 20 21 21 22 22 23 24 24
31 30 30 29 28 25 23 21 18 16 16 11 11 8 7 8 8 7 9 10 11 11 13 14 15 15 17 18 20 21 21 21 22 22 23 23 23 23 24 24 24 24 25
32 32 32 31 30 28 26 23 20 19 18 13 11 9 9 9 10 8 10 11 12 13 14 15 15 17 17 18 20 22 22 23 23 24 25 25 26 26 26 26 26 26 27
34 33 33 32 30 29 26 24 22 20 19 15 13 11 11 11 11 10 11 12 13 14 15 17 17 18 19 20 21 23 24 26 26 27 27 28 28 28 28 27 26 27 28
36 34 33 31 31 30 29 27 23 22 20 17 14 14 12 13 12 12 12 13 14 16 17 17 18 20 21 22 23 24 24 27 28 29 31 31 31 30 30 29 29 30 30
37 35 33 32 31 30 28 26 24 22 22 19 17 15 14 14 14 14 14 15 16 18 19 19 19 21 22 24 25 25 26 28 29 30 31 32 32 32 31 32 33 33 33
36 36 35 35 32 31 29 27 26 25 24 21 19 17 16 16 16 16 16 17 18 19 21 22 22 23 24 25 25 26 27 29 30 32 33 34 35 35 35 36 37 36 36
38 38 37 35 34 32 30 30 28 26 24 23 20 19 19 18 18 18 18 18 20 21 23 24 24 24 25 25 25 26 26 28 31 33 35 35 35 36 38 39 39 39 39
39 38 37 36 35 32 33 31 29 27 26 26 23 20 19 19 20 21 21 20 21 23 25 26 26 27 27 27 27 27 27 28 30 32 34 36 37 39 41 42 41 41 41
38 36 33 35 34 35 33 32 30 28 28 27 25 23 23 22 23 23 23 22 23 24 26 28 28 29 30 30 30 28 28 29 31 33 36 38 40 41 42 44 43 42 43
26 26 30 31 33 31 32 32 31 30 30 29 28 26 25 25 26 25 25 25 25 26 27 29 29 30 32 32 32 32 32 32 33 35 37 40 41 42 43 45 44 44 45
24 25 26 29 30 31 33 33 32 31 31 31 30 29 28 28 28 27 27 27 28 28 28 29 31 32 33 33 34 34 34 34 35 37 38 41 43 43 45 46 46 46 48
26 24 30 32 31 35 33 33 33 32 34 33 33 32 31 31 30 29 30 29 29 30 30 30 31 33 34 35 36 36 36 36 38 39 40 42 43 45 46 48 49 49 52
25 30 32 36 39 38 36 36 34 34 35 35 35 34 33 33 33 32 32 32 31 31 31 32 32 34 34 37 37 38 39 38 38 40 42 43 44 46 47 49 51 51 53
35 35 37 39 39 43 42 39 38 39 38 37 36 36 35 35 35 34 34 34 34 33 33 33 33 34 35 38 39 38 40 40 40 41 43 44 45 47 48 51 52 51 54
37 38 39 39 42 45 44 44 45 43 42 40 38 38 37 38 37 36 37 37 35 35 35 36 36 35 36 40 41 41 40 40 40 43 44 45 47 47 49 52 52 55 56
38 39 38 39 40 42 45 49 50 48 46 44 42 41 40 40 40 40 40 38 37 37 38 38 38 38 40 41 42 42 38 40 40 41 46 47 49 50 49 52 54 56 59
41 38 38 40 42 44 46 48 50 53 49 48 46 45 42 43 42 43 41 39 39 40 40 40 40 39 39 39 40 40 42 42 39 41 49 48 50 50 50 52 55 59 61
43 43 45 46 46 47 46 47 50 49 51 50 51 46 46 47 45 46 42 42 41 42 41 41 43 40 38 40 40 40 43 44 45 43 51 51 51 52 53 57 61 63 64
42 38 41 42 42 45 45 46 44 47 49 52 50 50 50 50 49 47 45 44 44 43 41 41 41 41 40 42 43 42 42 45 48 48 55 58 55 57 58 60 61 62 64
38 44 45 45 46 46 46 47 49 48 47 48 50 51 52 53 51 48 47 47 45 43 40 40 39 40 41 42 43 43 45 47 49 48 53 60 56 59 60 60 61 62 68
47 45 47 47 47 47 48 47 47 48 52 50 49 52 55 54 52 52 52 50 46 42 40 40 41 40 40 42 44 44 45 49 51 50 52 59 57 61 61 61 64 66 70
45 44 46 48 48 48 49 52 53 52 52 52 52 53 54 54 55 55 54 49 45 43 40 41 41 40 40 42 44 45 48 49 52 54 52 60 60 63 64 62 64 67 70
Wind_Direction
202 200 197 193 195 193 192 188 192 189 197 205 209 205 223 245 254 263 272 284 285 288 291 300 308 318 323 327 330 332 334 337 336 332 329 325 321 316 311 306 301 297 293
200 200 198 197 195 196 193 194 191 192 202 207 209 214 235 250 259 265 278 289 292 294 294 296 304 312 316 320 324 324 326 330 331 328 326 325 322 316 311 306 301 298 295
200 198 198 198 199 200 196 196 199 197 210 210 210 220 228 247 257 264 276 283 288 292 292 298 305 311 313 315 318 320 321 325 329 331 330 329 326 322 317 312 307 302 298
200 200 198 199 201 201 201 201 203 204 215 212 212 220 228 244 258 267 277 281 282 287 291 296 302 306 309 310 314 317 319 324 327 328 327 325 323 320 317 313 310 307 304
201 199 201 201 202 203 205 208 209 212 223 214 220 218 223 242 256 266 277 282 286 289 292 297 300 303 305 308 312 314 316 320 322 323 322 322 322 320 316 312 309 306 302
203 201 201 202 205 207 207 211 213 218 227 224 224 225 229 241 253 263 274 280 287 291 294 296 296 297 298 301 306 309 312 314 317 317 319 319 320 319 317 314 311 308 304
204 205 203 204 207 210 210 215 217 221 229 230 232 232 235 244 254 260 270 278 286 288 291 295 297 297 296 297 302 307 310 313 316 317 318 319 318 317 314 311 309 308 305
206 206 207 206 209 212 212 216 220 226 231 232 237 239 241 249 255 262 270 276 280 286 289 292 296 297 297 297 301 306 309 312 316 317 317 316 315 314 313 312 312 310 308
206 207 208 208 211 214 216 220 223 229 233 233 236 242 246 251 256 262 267 272 277 281 286 289 293 294 294 294 298 304 308 312 313 312 313 316 316 315 314 313 313 312 310
209 208 209 211 212 214 216 220 223 228 232 233 236 241 248 251 256 260 266 270 275 280 285 288 291 292 293 293 296 301 306 309 311 313 317 317 317 316 315 313 312 310 308
211 211 212 213 214 215 216 220 224 230 235 236 238 241 246 253 257 262 264 270 275 280 282 284 287 289 290 291 294 298 303 307 310 314 315 315 314 313 313 312 311 309 308
214 214 214 215 218 217 221 223 226 229 236 238 238 243 249 254 259 262 266 267 273 277 281 284 287 289 290 290 290 296 301 306 309 310 312 313 314 315 315 314 312 310 310
216 219 221 222 222 222 225 227 228 232 237 241 241 242 246 251 258 262 266 269 273 276 281 284 289 290 291 292 293 295 299 303 306 308 311 314 316 316 314 312 310 309 310
216 220 227 229 230 230 232 233 233 233 238 242 244 246 249 252 257 262 267 270 273 277 280 284 288 290 290 290 291 293 295 300 303 309 312 314 315 314 313 311 308 307 308
213 221 227 228 231 231 232 232 234 236 239 242 244 246 249 253 257 262 267 270 274 278 280 283 287 289 291 291 290 289 291 295 302 307 311 314 313 312 312 309 307 308 308
215 229 238 238 235 234 232 235 235 236 239 241 243 247 250 253 258 262 265 270 273 277 282 285 286 289 291 292 291 290 291 294 299 304 310 312 312 311 311 309 307 308 309
250 249 250 241 237 237 232 233 234 236 238 241 243 246 250 254 258 261 265 270 273 278 282 285 287 289 292 293 295 294 292 294 298 303 306 310 310 310 310 307 306 308 308
253 248 243 241 238 237 234 233 235 236 238 240 244 247 250 254 257 261 264 268 273 278 283 286 289 291 293 294 294 292 290 293 296 300 304 308 309 309 307 304 304 304 303
252 249 245 240 236 236 235 236 238 237 238 238 241 244 248 252 256 259 263 267 273 277 282 285 289 292 294 293 292 292 291 291 295 298 302 306 307 305 302 301 302 304 309
251 245 241 239 238 239 239 238 238 239 238 239 240 242 246 251 255 258 261 266 271 276 280 285 290 295 296 293 291 291 289 290 292 297 300 302 303 302 302 303 305 308 310
250 246 245 243 243 242 242 242 241 241 239 240 240 242 245 250 253 257 261 266 270 275 279 285 290 294 297 297 294 294 294 294 295 300 299 300 300 303 305 304 308 312 315
242 245 247 250 242 240 239 240 240 241 241 241 241 241 244 247 251 256 259 263 268 273 279 285 291 300 301 302 299 297 296 299 299 303 299 301 305 307 309 313 315 318 319
248 243 240 244 247 246 243 243 244 245 244 241 241 241 243 246 249 253 257 261 265 270 276 283 292 299 301 303 301 299 299 301 304 308 305 305 312 313 314 316 317 321 320
247 245 244 241 242 243 244 241 241 241 244 244 241 240 243 245 247 251 254 257 261 267 274 280 289 291 298 301 302 302 302 303 305 311 310 306 313 314 315 316 319 323 324
249 248 246 248 249 248 248 242 243 246 244 244 244 242 241 243 245 247 251 254 259 265 270 279 284 287 295 299 300 301 303 305 306 310 312 309 315 315 315 319 322 327 326
248 243 242 243 244 244 244 245 243 238 241 240 240 240 240 240 242 245 247 251 256 261 267 273 278 285 290 296 298 303 306 309 310 311 316 314 317 319 317 321 325 325 324